Content
SEND FEEDBACK

Daily
Averages
Monthly
Summary
Mexico

CANCUN, QUINTANA ROO


Home > North America > Mexico > Quintana Roo
Elevation: 9 meters     Latitude: 21 09N     Longitude: 086 49W

WEATHER
 
SELECT A DAY
Number of Records: 163,905;   Date Range: 1/1/95 - 8/10/14
 
SHARE

PRINT THIS DATA

[ ← Previous Day ]
WEATHER ALMANAC - 6 FEBRUARY, 2013
[ Next Day → ]
[ °F ]   °C
Weather ElementAverageHighLow
Temperature25.6 °C28 °C (10:52 am)23 °C (2:42 am)
Dewpoint20.1 °C22 °C (7:40 pm)19 °C (2:42 am)
Humidity71.7 %83 % (7:40 pm)58 % (12:47 pm)
Barometer1015.9 hPa1018.3 hPa (9:43 am)1014.2 hPa (2:42 am)
Wind Speed13.8 km/h22.2 km/h (1:41 pm)
Weather ElementAverage
Visibility11.3 km
Wind DirectionESE (124.3 °)

Weather ElementTotal
Precipitation---
Cooling Degree Days7.2 (Base 18.3)
Growing Degree Days15.5 (Base 10)
Averaged from 23 records on 6 February, 2013
WEATHER CONDITIONS BREAKOUT
WIND DIRECTION BREAKOUT
WEATHER BY HOUR - 6 FEBRUARY, 2013
[ °F ]   °C
Local TimeTemperatureDewpointHumidityBarometerVisibilityWind DirectionWind SpeedGust SpeedPrecipitationEventsConditions
1:40 AM24 °C20 °C78 %1014.9 hPa11.3 kmESE (120°)9.3 km/hScattered Clouds
2:42 AM23 °C19 °C78 %1014.2 hPa11.3 kmESE (120°)9.3 km/hScattered Clouds
3:42 AM24 °C19 °C73 %1014.6 hPa11.3 kmESE (120°)9.3 km/hScattered Clouds
4:40 AM24 °C19 °C73 %1014.9 hPa11.3 kmSE (130°)9.3 km/hScattered Clouds
5:43 AM23 °C19 °C78 %1015.2 hPa11.3 kmSE (130°)9.3 km/hScattered Clouds
6:40 AM23 °C19 °C78 %1016.3 hPa11.3 kmESE (120°)7.4 km/hScattered Clouds
7:44 AM26 °C20 °C69 %1017.3 hPa11.3 kmSE (130°)16.7 km/hScattered Clouds
8:43 AM27 °C20 °C65 %1017.9 hPa11.3 kmSE (130°)14.8 km/hScattered Clouds
9:43 AM27 °C19 °C61 %1018.3 hPa11.3 kmESE (110°)18.5 km/hScattered Clouds
10:52 AM28 °C20 °C62 %1017.9 hPa11.3 kmEast (100°)11.1 km/hMostly Cloudy
11:49 AM28 °C20 °C62 %1017.3 hPa11.3 kmESE (110°)14.8 km/hScattered Clouds
12:47 PM28 °C19 °C58 %1016.3 hPa11.3 kmSE (140°)20.4 km/hScattered Clouds
1:41 PM28 °C19 °C58 %1015.2 hPa11.3 kmSSE (150°)22.2 km/hScattered Clouds
2:46 PM27 °C19 °C61 %1015.2 hPa11.3 kmSE (140°)16.7 km/hMostly Cloudy
3:43 PM27 °C20 °C65 %1014.9 hPa11.3 kmESE (120°)14.8 km/hMostly Cloudy
4:45 PM26 °C20 °C69 %1014.6 hPa11.3 kmESE (120°)11.1 km/hScattered Clouds
5:42 PM25 °C21 °C78 %1014.9 hPa11.3 kmESE (120°)13 km/hMostly Cloudy
6:43 PM25 °C21 °C78 %1014.9 hPa11.3 kmESE (120°)9.3 km/hScattered Clouds
7:40 PM25 °C22 °C83 %1015.6 hPa11.3 kmESE (110°)11.1 km/hPartly Cloudy
8:45 PM25 °C22 °C83 %1015.6 hPa11.3 kmESE (120°)14.8 km/hPartly Cloudy
9:48 PM25 °C22 °C83 %1015.9 hPa11.3 kmSE (130°)16.7 km/hPartly Cloudy
10:47 PM25 °C21 °C78 %1015.9 hPa11.3 kmSE (130°)22.2 km/hClear
11:46 PM25 °C21 °C78 %1014.9 hPa11.3 kmSE (140°)14.8 km/hClear
Hourly data recorded from MMUN, located 0 kilometers away from Cancun, Quintana Roo







STORIES FROM OUR PARTNERS